CZ-2C DEB

Satellite information

Favourite Embed

Satellite Type and Status

DEBRISIN ORBIT

Key statistics

Satellite CZ-2C DEB at a glance.

Uptime

4056

Days in orbit

Revolutions

≈ 14.4

Per day

Orbit

SSO

Sun Synchronous Orbit

Inclination

98.6

Latest

Satellite identification and parameters

Extended collection of information and parameters for CZ-2C DEB.

Object identification

Identified? True

Debris? True

Object name: CZ-2C DEB

International designator: 2014-014F

Object number (NORAD): 39629

Object ID (CCSDS): 39629

Country: PEOPLES REPUBLIC OF CHINA (PRC)

Current information (Y/N): Y

RCS size: SMALL

Orbital parameters

Period: 100.316 minutes

Inclination: 98.5817 deg

SMA: 7151.664 km

Apoapsis: 879.75 km

Periapsis: 667.308 km

RAAN: 88.5012 deg

Eccentricy: 0.0148526

Argument of periapsis: 175.0895 deg

Mean anomaly: 185.1789 deg

Mean motion: 14.35463367 rev/day

Mean motion (dot): 0.00002066 rev/day2

B* drag term: 0.00064857 1/REarth

Two-line elements (TLE)

Creation date: May 8, 2025, 3:01 a.m.

Reference frame: TEME

Reference center: EARTH

Epoch: May 7, 2025, 7:36 p.m. UTC

TLE line 0: 0 CZ-2C DEB

TLE line 1: 1 39629U 14014F 25127.81730777 .00002066 00000-0 64857-3 0 9993

TLE line 2: 2 39629 98.5817 88.5012 0148526 175.0895 185.1789 14.35463367577442

Live tracking on map

Real-time ground track for satellite CZ-2C DEB.

In-orbit conjunctions

A list of the most updated potential collisions computed for object CZ-2C DEB.

Target Orbit TCA Probability of collision Miss distance Type
COSMOS 2322 LEO 2025-01-06 12:27:55 0.000540573 771.0 (m) PAYLOAD
FENGYUN 1C DEB SSO 2024-11-10 07:22:50 0.001216302 197.0 (m) DEBRIS

Associated space launch

CZ-2C DEB was lifted into orbit during the mission ‘Long March 2C | Shijian 11-06’, on board a Long March 2 space rocket.

The launch took place on March 31, 2014, 2:46 a.m. from Launch Area 4 (SLS-2 / 603).

For more information about the launch, click the button.

Launch to space Long March 2C | Shijian 11-06
Long March 2C | Shijian 11-06

Agency: N/A

Status: Launch Successful

Launch date: March 31, 2014, 2:46 a.m. UTC

Rocket: Long March 2

Launch pad: Launch Area 4 (SLS-2 / 603)

Location: Jiuquan Satellite Launch Center, People's Republic of China

...

Latest news about this satellite

There are no fresh news available about this satellite. Check back as we update our databases every day.


Newsletter sign-up

Weekly statistics, charts and insights to help you stay on top of the space industry.